ONEWEB-0149 (48058 NORAD) Tracking and Keplerian Element Data

This shows tracking and keplerian element data for the satellite.

Feedback or suggestion? Click here.




ElementValue
Catalog48058
NameONEWEB-0149
Epoch Orbit185
Epoch Day170.58334491
Epoch Year2021
RAAN323.0961
Inclination87.7148
Eccentricity0.0008691
Argument of Perigee7.1106
Mean Anonmoly287.2095
Mean Motion13.77512838
Decay Rate1.5E-07
L11 48058U 21025S 21170.58334491 .00000015 00000-0 00000-0 0 9999
L22 48058 87.7148 323.0961 0008691 7.1106 287.2095 13.77512838 1857

Live tracking and technical data element details for ONEWEB-0149 (NORAD 48058). ONEWEB-0149 can be tracked NOW for your location showing map with azimuth and elevation plus other details from your city location.

Track the satellite on the map from your city or location and see movement details for azimuth, elevation, latitude, longitude, range, height, and movement on the map or in text.







IsCatalogInMostPopularTable: catalog: 48058, numindb: 43
Update: records affected: 1



GetName: 48058 ONEWEB-0149

Hit Count: updated at: Mon, 21 Jun 2021 04:21:59 GMT